Location: Volkssternwarte_EN
(51.3230°N, 7.4010°E)
Time: 22:41:20
(UTC+02:00)

Tiangong - Visible Passes

Search period start: 14 July 2024 00:00
Search period end: 24 July 2024 00:00
Orbit: 373 x 378 km, 41.5° (Epoch: 14 July)

Date Brightness Start Highest point End Pass type
(mag) Time Alt. Az. Time Alt. Az. Time Alt. Az.
17 Jul 0.2 03:55:11 11° SSE 03:55:11 11° SSE 03:56:05 10° SSE visible
18 Jul -0.1 04:27:16 12° SSW 04:28:28 14° S 04:30:08 10° SE visible
20 Jul -0.1 03:59:32 13° S 03:59:32 13° S 04:00:43 10° SSE visible
21 Jul 0.0 04:31:51 11° SSW 04:32:07 11° SSW 04:33:04 10° S visible
